This is the latest recevied weather packets stored in our database for station/object KA1AL. If no packets are shown the sender has not sent any weather packets the latest 10 day(s).
| Time | Temp. | Humidity | Pressure | Rain* | Wind** | Luminosity | Snow |
|---|---|---|---|---|---|---|---|
| 1778094683 | 12.78° C | 99% | 1005.8 hPa | 9.65 mm | - | 7 W/m² | - |
| 1778094381 | 12.78° C | 99% | 1005.6 hPa | 7.11 mm | - | 8 W/m² | - |
| 1778094078 | 12.78° C | 99% | 1005.5 hPa | 7.11 mm | - | 27 W/m² | - |
| 1778093775 | 12.78° C | 99% | 1005.6 hPa | 6.6 mm | - | 15 W/m² | - |
| 1778093471 | 12.78° C | 99% | 1005.5 hPa | 4.83 mm | - | 15 W/m² | - |
| 1778093169 | 12.78° C | 99% | 1005.6 hPa | 4.83 mm | - | 24 W/m² | - |
| 1778092866 | 12.78° C | 99% | 1005.8 hPa | 3.05 mm | - | 21 W/m² | - |
| 1778092562 | 12.78° C | 99% | 1005.9 hPa | 4.32 mm | - | 32 W/m² | - |
| 1778092258 | 12.78° C | 99% | 1005.8 hPa | 4.83 mm | - | 60 W/m² | - |
| 1778091956 | 12.78° C | 99% | 1006.1 hPa | 3.05 mm | - | 30 W/m² | - |
| 1778091653 | 12.78° C | 99% | 1006.2 hPa | 3.05 mm | - | 43 W/m² | - |
| 1778091351 | 12.78° C | 99% | 1005.9 hPa | 3.05 mm | - | 75 W/m² | - |
| 1778091047 | 12.78° C | 99% | 1006.2 hPa | 3.05 mm | - | 74 W/m² | - |
| 1778090744 | 12.78° C | 99% | 1006.1 hPa | 3.05 mm | - | 73 W/m² | - |
| 1778090441 | 12.78° C | 99% | 1006.7 hPa | 3.05 mm | - | 28 W/m² | - |
| 1778090137 | 12.22° C | 99% | 1006.4 hPa | 1.78 mm | - | 33 W/m² | - |
| 1778089833 | 12.22° C | 99% | 1006.4 hPa | 1.78 mm | - | 72 W/m² | - |
| 1778089532 | 12.22° C | 99% | 1006.6 hPa | 1.78 mm | - | 80 W/m² | - |
| 1778089228 | 12.22° C | 99% | 1006.6 hPa | 0 mm | - | 37 W/m² | - |
| 1778088926 | 12.22° C | 99% | 1006.5 hPa | 1.27 mm | - | 53 W/m² | - |
| 1778088622 | 12.22° C | 99% | 1006.5 hPa | 3.05 mm | - | 64 W/m² | - |
| 1778088320 | 12.22° C | 99% | 1006.6 hPa | 1.78 mm | - | 92 W/m² | - |
| 1778088016 | 12.78° C | 99% | 1006.5 hPa | 3.05 mm | - | 106 W/m² | - |
| 1778087714 | 12.22° C | 99% | 1006.6 hPa | 1.27 mm | - | 134 W/m² | - |
| 1778087411 | 12.22° C | 99% | 1006.8 hPa | 1.78 mm | - | 146 W/m² | - |
* Rain latest hour (hover to see other rain measurements)
** Current wind speed in m/s (hover to see current wind gust speed)